Wind from 300 at 6 knots

Air temperature 8.0° C
Dewpoint -10.0° C

Last reported at 2014-Apr-24 08:50 UTC.
Time now 2014-Apr-24 11:10 UTC

Location: N 60°54' E 026°56'.
View on Google Maps.

See reports from other nearby stations

Tides Stations Pressure Air Temp Water Temp Dewpoint Dewpoint depression Visibility Wind Speed Wind Dir Waves Ship positions

  
sailing weather and tide predictions

UTTI weather

date/time (UTC)wind fromknots sea level pressurealtimeterstation pressurevisibilityair tempwater tempwave heightnotes
2014-Apr-24 09:50 310 6 8.0
2014-Apr-24 09:20 290 9 8.0
2014-Apr-24 08:50 300 6 8.0
2014-Apr-24 08:20 310 8 8.0
2014-Apr-24 07:50 260 7 7.0
2014-Apr-24 07:20 280 7 6.0
2014-Apr-24 06:50 6.0
2014-Apr-24 06:20 260 5 5.0
2014-Apr-24 05:50 280 2 4.0
2014-Apr-24 05:20 4.0
2014-Apr-24 04:50 2.0
2014-Apr-24 04:20 1.0
2014-Apr-24 03:50 310 1 -0.0
2014-Apr-24 03:20 300 2 -2.0
2014-Apr-24 02:50 330 2 -3.0
2014-Apr-24 02:20 330 2 -2.0
2014-Apr-24 01:50 340 1 -2.0
2014-Apr-24 01:20 340 2 -3.0
2014-Apr-24 00:50 020 4 -1.0
2014-Apr-24 00:20 360 4 -2.0
2014-Apr-23 23:50 020 5 -0.0
2014-Apr-23 23:20 360 4 -0.0
2014-Apr-23 22:50 360 4 -1.0
2014-Apr-23 22:20 350 3 -0.0
2014-Apr-23 21:50 330 4 -0.0
2014-Apr-23 21:20 330 3 1.0
2014-Apr-23 20:50 330 3 1.0
2014-Apr-23 20:20 350 3 2.0
2014-Apr-23 19:50 020 2 3.0
2014-Apr-23 19:20 010 3 3.0
2014-Apr-23 18:50 360 3 4.0
2014-Apr-23 18:20 360 4 4.0
2014-Apr-23 17:50 010 5 5.0
2014-Apr-23 17:20 010 7 6.0
2014-Apr-23 16:50 010 8 7.0
2014-Apr-23 16:20 020 8 7.0
2014-Apr-23 15:50 010 10 7.0
2014-Apr-23 15:20 350 9 8.0
2014-Apr-23 14:50 330 11 8.0
2014-Apr-23 14:20 340 10 gusting 20 8.0
2014-Apr-23 13:50 330 10 9.0
2014-Apr-23 13:20 340 12 8.0
2014-Apr-23 12:50 340 12 9.0
2014-Apr-23 12:20 340 10 8.0
2014-Apr-23 11:50 330 11 8.0
2014-Apr-23 11:20 320 10 8.0
2014-Apr-23 10:50 330 10 8.0
2014-Apr-23 10:20 350 11 8.0
2014-Apr-23 09:50 360 11 gusting 20 7.0
2014-Apr-23 09:20 030 10 7.0
2014-Apr-23 08:50 350 12 7.0
2014-Apr-23 08:20 340 11 gusting 22 7.0
2014-Apr-23 07:50 010 11 7.0
2014-Apr-23 07:20 360 10 6.0
2014-Apr-23 06:50 360 10 5.0
2014-Apr-23 06:20 360 10 5.0
2014-Apr-23 05:50 010 8 5.0
2014-Apr-23 05:20 010 8 3.0
2014-Apr-23 04:50 360 7 3.0
2014-Apr-23 04:20 360 7 2.0
2014-Apr-23 03:20 350 7 1.0
2014-Apr-23 02:50 350 6 1.0
2014-Apr-23 02:20 350 6 1.0
2014-Apr-23 01:50 350 7 2.0
2014-Apr-23 01:20 360 6 2.0
2014-Apr-23 00:50 350 6 2.0
2014-Apr-23 00:20 350 6 3.0
2014-Apr-22 23:50 350 7 3.0
2014-Apr-22 23:20 350 8 4.0
2014-Apr-22 22:50 350 6 4.0
2014-Apr-22 22:20 360 9 5.0
2014-Apr-22 21:50 360 9 5.0
2014-Apr-22 21:20 350 7 6.0
2014-Apr-22 20:50 360 9 7.0
2014-Apr-22 20:20 360 8 7.0
2014-Apr-22 19:50 010 9 8.0
2014-Apr-22 19:20 350 8 9.0
2014-Apr-22 18:50 350 9 10.0
2014-Apr-22 18:20 350 8 11.0
2014-Apr-22 17:50 350 7 12.0
2014-Apr-22 17:20 340 10 13.0
2014-Apr-22 16:50 340 10 14.0
2014-Apr-22 16:20 340 10 14.0
2014-Apr-22 15:50 350 9 15.0
2014-Apr-22 15:20 350 10 15.0
2014-Apr-22 14:50 350 9 16.0
2014-Apr-22 14:20 320 10 16.0
2014-Apr-22 13:50 310 8 17.0
2014-Apr-22 13:20 300 9 17.0
2014-Apr-22 12:50 320 10 17.0
2014-Apr-22 12:20 350 9 17.0
2014-Apr-22 11:50 340 8 17.0
2014-Apr-22 11:20 330 8 17.0